Location: Ostrava
(49.8330°N, 18.2830°E)
Time: 01:09:04
(UTC+02:00)

Envisat - Pass Details

Date: 18 January 2022
Orbit: 764 x 765 km, 98.2° (Epoch: 21 May)

Event Time Altitude Azimuth Distance (km) Brightness Sun altitude
Rises 06:52:30 0° 360° (N) 3,243 6.0 -7.1°
Reaches altitude 10° 06:56:15 10° 332° (NNW) 2,311 5.0 -6.6°
Maximum altitude 06:58:12 12° 309° (NW) 2,153 4.7 -6.3°
Drops below altitude 10° 07:00:09 10° 286° (WNW) 2,305 4.8 -6.0°
Sets 07:03:54 0° 257° (WSW) 3,227 5.8 -5.4°
